Regional Weather Roundup
Issued by NWS

Home | Current Version | Previous Version | Graphics & Text | Print | Product List | Glossary On
Versions: 1 2 3 4 5 6 7 8 9 10 11 12 13 14 15 16 17 18 19 20 21 22 23 24 25 26 27 28 29 30 31 32 33 34 35 36 37 38 39 40 41 42 43 44 45 46 47 48 49 50
000
ASUS43 KMPX 062010
RWRMN
WEATHER ROUNDUP FOR MINNESOTA
NATIONAL WEATHER SERVICE TWIN CITIES/CHANHASSEN MN
300 PM CDT MON JUL 06 2015


NOTE: "FAIR" INDICATES FEW OR NO CLOUDS BELOW 12,000 FEET WITH NO
SIGNIFICANT WEATHER AND/OR OBSTRUCTIONS TO VISIBILITY. N/A MEANS
CURRENT SKY AND/OR WEATHER CONDITIONS ARE NOT AVAILABLE.

MNZ060>063-068>070-062100-
   Twin Cities Metro

CITY           SKY/WX    TMP DP  RH WIND       PRES   REMARKS
TWIN CITIES    CLOUDY    68  61  78 N10       29.93R SMOKE
ST PAUL        CLOUDY    67  60  78 N17G23    29.93R HAZE
CRYSTAL        CLOUDY    70  58  65 N16G24    29.93R HAZE
BLAINE         CLOUDY    72  63  73 N20       29.94R FOG
LAKEVILLE      CLOUDY    66  59  77 N17G25    29.93R HAZE
EDEN PRAIRIE   CLOUDY    70  61  73 N13G23    29.92R HAZE
SOUTH ST PAUL  CLOUDY    67  61  79 N16G22    29.92R HAZE
LAKE ELMO      CLOUDY    64  61  88 N12G18    29.93R HAZE
$$
MNZ001>005-007-008-013>017-022>024-027-028-062100-
   Northwest Minnesota

CITY           SKY/WX    TMP DP  RH WIND       PRES   REMARKS
BEMIDJI        CLOUDY    59  46  62 NW14      30.05R
HALLOCK        CLOUDY    61  46  59 N14       30.10S
ROSEAU         PTSUNNY   63  48  59 NW13G18   30.06S
WARROAD        PTSUNNY   61  48  63 NW13G22   30.06S
THIEF RVR FALL CLOUDY    61  45  55 N17       30.09S
CROOKSTON      PTSUNNY   63  48  59 N18       30.10F
FOSSTON        CLOUDY    59  46  63 NW15G24   30.08R
DETROIT LAKES  MOSUNNY   64  45  48 N21G30    30.07R
MOORHEAD       MOSUNNY   66  48  52 N17G29    30.09R
PARK RAPIDS    CLOUDY    64  45  49 NW18G26   30.04R
MAHNOMEN       CLOUDY    59  46  62 NW17G24   30.08R
$$
MNZ006-009>011-018-025>026-062100-
   North Central Minnesota

CITY           SKY/WX    TMP DP  RH WIND       PRES   REMARKS
BAUDETTE       MOSUNNY   62  45  53 N16G26    30.02S
FLAG ISLAND    PTSUNNY   61  45  55 NW18G26   30.03S
INTL FALLS     CLOUDY    61  44  53 N12       30.00R
WASKISH        CLOUDY    61  46  59 NW8G16    30.04R
BIG FORK       MOSUNNY   63  46  55 N6        30.00S
LONGVILLE      PTSUNNY   63  48  59 NW7       30.01R
GRAND RAPIDS   PTSUNNY   66  46  48 N15G21    29.98R
CRANE LAKE     PTSUNNY   61  48  63 NW9       29.98R
COOK           PTSUNNY   63  48  59 NW12      29.97S
WALKER         CLOUDY    60  46  59 NW8       30.03R
$$
MNZ012-019>021-037-062100-
   Northeast Minnesota

CITY           SKY/WX    TMP DP  RH WIND       PRES   REMARKS
DULUTH         CLOUDY    64  55  72 N8G18     29.93S SMOKE
ELY            PTSUNNY   63  50  63 NW6G17    29.94S
HIBBING        PTSUNNY   65  49  56 NW15      29.96S
DULUTH HARBOR  CLOUDY    63  61  94 CALM      29.93S FOG
TWO HARBORS    CLOUDY    64  61  88 NW5       29.92R HAZE
SILVER BAY     CLOUDY    64  57  77 NW6       29.91S HAZE
GRAND MARAIS     N/A     55  54  96 SW7       29.90S
G MARAIS ARPRT LGT RAIN  59  54  82 NW3       29.93R
$$
MNZ029>031-032-039>041-046>048-054>057-064-062100-
   West Central Minnesota

CITY           SKY/WX    TMP DP  RH WIND       PRES   REMARKS
FERGUS FALLS   SUNNY     66  48  52 N23G32    30.05R
WHEATON        SUNNY     66  52  59 N21G26    30.08R
MORRIS         SUNNY     70  54  56 NW21      30.02S
ALEXANDRIA     SUNNY     68  50  52 NW20G25   30.03R
ELBOW LAKE     FAIR      67  50  53 NW22G29   30.04S
WADENA         SUNNY     66  48  52 NW16G24   30.02R
GLENWOOD       SUNNY     72  52  49 N17G23    30.01R
APPLETON       SUNNY     73  52  46 N21G30    30.02R
BENSON         SUNNY     72  52  49 N13G28    30.01R
ORTONVILLE     SUNNY     70  52  52 N21G26    30.05R
MADISON        SUNNY     72  55  56 N20       30.03R
WILLMAR        FAIR      73  57  56 N15G24    30.00R HAZE
$$
MNZ033>034-036-042>043-049>051-058-059-062100-
   Central Minnesota

CITY           SKY/WX    TMP DP  RH WIND       PRES   REMARKS
ST CLOUD       CLOUDY    72  57  59 N14G22    29.96R HAZE
SAUK CENTRE    FAIR      70  52  52 NW15G23   29.99R
PAYNESVILLE    PTSUNNY   69  56  62 NW14      29.99R HAZE
AITKIN         MOSUNNY   70  55  60 NW8       29.95S
PINE RIVER       N/A     66  48  52 N16       30.04R
BRAINERD       MOSUNNY   70  52  52 N13       29.97S
STAPLES        SUNNY     66  48  52 N15G25    30.01R
LONG PRAIRIE   FAIR      70  50  49 NW15G21   30.00R
LITTLE FALLS   PTSUNNY   72  52  49 N7        29.97S
LITCHFIELD     MOSUNNY   73  61  64 N14G24    29.97R HAZE
BUFFALO          N/A     70  58  64 N13G20    29.96S HAZE
MAPLE LAKE       N/A     72  62  72 N14G22    29.97R HAZE
$$
MNZ037-044-045-052-053-062100-
   East Central Minnesota

CITY           SKY/WX    TMP DP  RH WIND       PRES   REMARKS
PRINCETON      PTSUNNY   70  61  73 N13G18    29.95S HAZE
MORA             N/A     66  55  68 N10G16    29.96S HAZE
CAMBRIDGE        N/A     66  57  72 N13G18    29.93R HAZE
RUSH CITY      CLOUDY    64  58  79 N12G20    29.95R
MOOSE LAKE     PTSUNNY   66  55  68 N5        29.93S HAZE
HINCKLEY       MOCLDY    68  61  77 N9        29.94S HAZE
CLOQUET        PTSUNNY   66  54  63 NW13G18   29.94F HAZE
MCGREGOR       PTSUNNY   68  54  60 NW13G18   29.96S
$$
MNZ071>073-080-081-089-090-097-098-062100-
   Southwest Minnesota

CITY           SKY/WX    TMP DP  RH WIND       PRES   REMARKS
GRANITE FALLS  MOSUNNY   72  58  61 NW21G26   30.01R HAZE
CANBY          MOSUNNY   70  57  63 N13G23    30.04S
MARSHALL       MOSUNNY   70  55  60 N21G26    30.00R
REDWOOD FALLS  CLOUDY    73  59  61 N12G21    29.97R HAZE
OLIVIA         CLOUDY    70  57  64 N15G23    29.97R HAZE
PIPESTONE      SUNNY     70  57  64 NE17G23   30.03R HAZE
WINDOM         PTSUNNY   72  59  64 N20G28    29.98S HAZE
WORTHINGTON    CLOUDY    70  59  68 N20       29.99S
JACKSON        CLOUDY    70  59  68 N20G28    29.98S HAZE
TRACY            N/A     72  63  74 N20       30.01R HAZE
SLAYTON          N/A     70  60  70 N23G29    30.02R HAZE
$$
MNZ065>067-074>077-082>085-091>093-062100-
   South Central Minnesota

CITY           SKY/WX    TMP DP  RH WIND       PRES   REMARKS
MANKATO        PTSUNNY  N/A N/A N/A N18       29.93S
NEW ULM        MOSUNNY   72  61  68 N12G18    29.95R HAZE
ST JAMES       MOSUNNY   72  63  73 N15G22    29.97R HAZE
FAIRMONT       PTSUNNY   72  57  60 N17G26    29.95R
GLENCOE        CLOUDY    71  62  73 N12G18    29.95R HAZE
FARIBAULT      CLOUDY    64  63  94 VRB15G22  29.92R
OWATONNA       CLOUDY    66  61  82 N22       29.91R HAZE
WASECA         CLOUDY    68  59  73 N18G26    29.94R HAZE
ALBERT LEA     CLOUDY    66  64  94 N14G23    29.90R FOG
$$
MNZ078>079-086>088-094>096-062100-
   Southeast Minnesota

CITY           SKY/WX    TMP DP  RH WIND       PRES   REMARKS
ROCHESTER      LGT RAIN  66  64  93 NW26G33   29.88R FOG
RED WING       DRIZZLE   64  61  88 N7        29.88R
STANTON        CLOUDY    66  59  77 N15       29.91R
DODGE CENTER   CLOUDY    64  63  94 N18G24    29.89R FOG
WINONA         HVY RAIN  73  70  88 CALM      29.80F VSB 3/4
AUSTIN         CLOUDY    68  64  88 N17G26    29.88R
PRESTON        CLOUDY    76  69  78 W15G21    29.84S
$$
ABBREVIATIONS USED IN REMARKS
   TC - TEMPERATURES IN CELSIUS
  WCI - WIND CHILL INDEX
   HX - HEAT INDEX
  VSB - VISIBILITY
$$



USA.gov is the U.S. government's official web portal to all federal, state and local government web resources and services.